Weather History for KDSV - March, 2013

Change the Weather History Date:

Friday, March 8, 2013

  Actual Average Record
Temperature  
Mean Temperature 34 °F -  
Max Temperature 42 °F 41 °F 70 °F (1983)
Min Temperature 26 °F 20 °F -5 °F (1984)
Degree Days  
Heating Degree Days 30    
Moisture  
Dew Point 25 °F    
Average Humidity 75    
Maximum Humidity 93    
Minimum Humidity 47    
Precipitation  
Precipitation 0.00 in - - ()
Sea Level Pressure  
Sea Level Pressure 30.34 in    
Wind  
Wind Speed 9 mph (NNW)    
Max Wind Speed 20 mph    
Max Gust Speed 26 mph    
Visibility 10 miles    
Events Snow    
Averages and records for this station are not official NWS values.
T = Trace of Precipitation, MM = Missing Value Source: NWS Daily Summary

Daily Weather History Graph

Daily Weather History Graph

Search for Another Location

Airport or City:

Trip Planner

Search our weather history database for the weather conditions in past years. The results will help you decide how hot, cold, wet, or windy it might be!

Date:

Astronomy

Mar. 08, 2013 Rise Set
Actual Time 6:34 AM EST 6:09 PM EST
Civil Twilight 6:06 AM EST 6:37 PM EST
Nautical Twilight 5:33 AM EST 7:10 PM EST
Astronomical Twilight 5:00 AM EST 7:43 PM EST
Moon 4:21 AM EST (3/8) 2:59 PM EST (3/8)
Length of Visible Light 12h 31m
Length of Day
11h 34m
Waning Crescent, 12% of the Moon is Illuminated
Mar 8
Waning Crescent
Mar 11
New
Mar 19
First Quarter
Mar 27
Full
Apr 3
Last Quarter

Hourly Weather History & Observations

Time (EST) Temp. Windchill Dew Point Humidity Pressure Visibility Wind Dir Wind Speed Gust Speed Precip Events Conditions
12:12 AM 30.2 °F 22.6 °F 28.4 °F 93% 30.24 in 10.0 mi NW 8.1 mph - 0.00 in   Overcast
12:54 AM 30.9 °F 23.5 °F 28.0 °F 89% 30.28 in 9.0 mi NW 8.1 mph - 0.00 in Snow Light Snow
1:05 AM 30.2 °F 22.6 °F 28.4 °F 93% 30.24 in 9.0 mi NW 8.1 mph - 0.00 in Snow Light Snow
1:33 AM 30.2 °F 21.3 °F 28.4 °F 93% 30.24 in 10.0 mi NW 10.4 mph - 0.00 in   Overcast
1:54 AM 30.9 °F 22.2 °F 27.0 °F 85% 30.29 in 10.0 mi NW 10.4 mph - 0.00 in   Overcast
2:02 AM 30.2 °F 21.9 °F 26.6 °F 86% 30.24 in 10.0 mi NW 9.2 mph - N/A   Overcast
2:54 AM 30.9 °F 23.5 °F 27.0 °F 85% 30.29 in 9.0 mi NW 8.1 mph - 0.00 in   Overcast
3:35 AM 30.2 °F 21.9 °F 26.6 °F 86% 30.25 in 10.0 mi NW 9.2 mph - N/A   Overcast
3:44 AM 30.2 °F 21.3 °F 26.6 °F 86% 30.25 in 10.0 mi NW 10.4 mph - N/A   Overcast
3:54 AM 30.0 °F 21.1 °F 26.1 °F 85% 30.30 in 10.0 mi NNW 10.4 mph - N/A   Overcast
4:54 AM 30.0 °F 21.1 °F 26.1 °F 85% 30.32 in 10.0 mi NNW 10.4 mph - N/A   Overcast
5:19 AM 30.2 °F 21.9 °F 26.6 °F 86% 30.28 in 10.0 mi NNW 9.2 mph - N/A   Overcast
5:54 AM 30.9 °F 22.8 °F 27.0 °F 85% 30.34 in 10.0 mi NNW 9.2 mph - N/A   Overcast
6:10 AM 30.2 °F 22.6 °F 26.6 °F 86% 30.29 in 10.0 mi NNW 8.1 mph - N/A   Overcast
6:24 AM 30.2 °F 21.9 °F 28.4 °F 93% 30.29 in 10.0 mi NNW 9.2 mph - N/A   Overcast
6:54 AM 30.9 °F 22.8 °F 28.0 °F 89% 30.35 in 10.0 mi NNW 9.2 mph - N/A   Overcast
7:54 AM 32.0 °F 24.8 °F 28.0 °F 85% 30.38 in 10.0 mi NNW 8.1 mph - N/A   Overcast
8:54 AM 34.0 °F 25.5 °F 27.0 °F 75% 30.38 in 10.0 mi NW 11.5 mph - N/A   Overcast
9:54 AM 36.0 °F 26.3 °F 25.0 °F 64% 30.38 in 10.0 mi NW 16.1 mph - N/A   Mostly Cloudy
10:54 AM 37.0 °F 27.7 °F 21.9 °F 54% 30.39 in 10.0 mi North 16.1 mph - N/A   Mostly Cloudy
11:54 AM 41.0 °F 31.9 °F 23.0 °F 49% 30.39 in 10.0 mi NNW 19.6 mph - N/A   Mostly Cloudy
12:54 PM 41.0 °F 32.5 °F 21.9 °F 47% 30.38 in 10.0 mi North 17.3 mph - N/A   Scattered Clouds
1:54 PM 42.1 °F 33.6 °F 23.0 °F 47% 30.37 in 10.0 mi NNW 18.4 mph 26.5 mph N/A   Partly Cloudy
2:54 PM 42.1 °F 34.5 °F 23.0 °F 47% 30.38 in 10.0 mi North 15.0 mph 23.0 mph N/A   Partly Cloudy
3:54 PM 42.1 °F 34.5 °F 23.0 °F 47% 30.38 in 10.0 mi North 15.0 mph - N/A   Partly Cloudy
4:54 PM 41.0 °F 34.3 °F 24.1 °F 51% 30.39 in 10.0 mi NNW 11.5 mph - N/A   Clear
5:54 PM 37.9 °F 32.1 °F 23.0 °F 55% 30.40 in 10.0 mi NW 8.1 mph - N/A   Clear
6:54 PM 35.1 °F - 23.0 °F 61% 30.42 in 10.0 mi Calm Calm - N/A   Clear
7:54 PM 32.0 °F - 23.0 °F 69% 30.43 in 10.0 mi Calm Calm - N/A   Clear
8:54 PM 28.9 °F - 21.9 °F 75% 30.44 in 10.0 mi Calm Calm - N/A   Clear
9:54 PM 28.0 °F - 21.9 °F 78% 30.44 in 10.0 mi Calm Calm - N/A   Clear
10:54 PM 27.0 °F - 21.9 °F 81% 30.44 in 10.0 mi Calm Calm - N/A   Clear
11:54 PM 26.1 °F - 21.9 °F 84% 30.43 in 10.0 mi Calm Calm - N/A   Clear